Hourly Weather Roundup
Issued by NWS

Home | Current Version | Previous Version | Text Only | Print | Product List | Glossary On
Versions: 1 2 3 4 5 6 7 8 9 10 11 12 13 14 15 16 17 18 19 20 21 22 23 24 25 26 27 28 29 30 31 32 33 34 35 36 37 38 39 40 41 42 43 44 45 46 47 48 49 50
000
NZUS43 KILX 210610
HWRCRS

NWR Hourly Weather Roundup
National Weather Service Lincoln IL
1200 AM CST WED FEB 21 2018


CITY           SKY/WX    TMP DP  RH WIND       PRES   REMARKS
Champaign      RAIN      35  34  96 NW18      30.16R FOG     WCI  24
Lawrenceville  LGT RAIN  54  52  93 N15       30.05R
Peoria         FRZ RAIN  29  25  85 NW8       30.25R WCI  21
Springfield    FRZ RAIN  32  29  88 NW16      30.26R FOG     WCI  21
$$


CITY           SKY/WX    TMP DP  RH WIND       PRES   REMARKS
Bloomington    FLURRIES  30  29  96 N16       30.21R WCI  19
Danville       LGT RAIN  37  37  97 NW15      30.11R WCI  28
Decatur        RAIN      33  33 100 NW21      30.20R WCI  21
Effingham      LGT RAIN  40  40  99 NW17G23   30.17R WCI  31
Flora          RAIN      43  42  97 NW20G28   30.15R WCI  34
Galesburg      MOCLDY    26  23  89 NW12G21   30.27R WCI  15
Jacksonville   LGT SNOW  29  27  92 NW12G17   30.28R WCI  20
Lacon          MIX PCPN  28  26  91 NW7       30.23R WCI  21
La Salle       DRIZZLE   29  25  85 CALM      30.22S
Lincoln        RAIN      32  32  99 N9        30.22R WCI  24
Litchfield     LGT SNOW  32  31  97 N15G21    30.21S WCI  21

CITY           SKY/WX    TMP DP  RH WIND       PRES   REMARKS
Macomb         MOCLDY    26  23  87 NW15      30.31R WCI  14
Mattoon        RAIN      38  37  97 NW20      30.14R WCI  28
Moline         FAIR      25  17  72 NW14G25   30.29R WCI  13
Olney          CLOUDY    45  43  93 NW15      30.12R
Paris          LGT RAIN  39  39  99 N10G17    30.12R WCI  33
Pontiac        LGT SNOW  32  32  99 NW10      30.22R WCI  24
Quincy         CLOUDY    26  21  81 N17       30.30R WCI  13
Rantoul        RAIN      36  35  96 NW16      30.16R WCI  26
Robinson       RAIN      47  46  98 N13       30.08R
Taylorville    RAIN      32  32  99 N12       30.22R WCI  23
Terre Haute    LGT RAIN  47  46  97 N9G20     30.06S
$$


CITY           SKY/WX    TMP DP  RH WIND       PRES   REMARKS
Burlington     MOCLDY    24  16  71 NW15G24   30.30R WCI  11
Chicago        LGT RAIN  34  30  85 NW10      30.18R WCI  26
Des Moines     CLOUDY    16  10  77 NW16G23   30.40R WCI   1
Evansville     MOCLDY    70  60  70 S15G23    30.03S
Indianapolis   MOCLDY    68  58  70 S15       30.01F
Kansas City    CLOUDY    19  14  81 N13       30.38R WCI   6
Milwaukee      CLOUDY    31  25  78 NW13      30.19R WCI  21
St Louis       RAIN      34  32  92 NW12G21   30.27R FOG     WCI  25
$$





USA.gov is the U.S. government's official web portal to all federal, state and local government web resources and services.